Regional Weather Roundup
Issued by NWS

Home | Current Version | Previous Version | Graphics & Text | Print | Product List | Glossary On
Versions: 1 2 3 4 5 6 7 8 9 10 11 12 13 14 15 16 17 18 19 20 21 22 23 24 25 26 27 28 29 30 31 32 33 34 35 36 37 38 39 40 41 42 43 44 45 46 47 48 49 50
000
ASUS43 KMKX 252259
RWRWI

WISCONSIN REGIONAL WEATHER ROUNDUP
NATIONAL WEATHER SERVICE MILWAUKEE/SULLIVAN WI
600 PM CDT THU MAY 25 2017

NOTE: "FAIR" INDICATES FEW OR NO CLOUDS BELOW 12,000 FEET WITH NO
SIGNIFICANT WEATHER AND/OR OBSTRUCTIONS TO VISIBILITY.

WIZ001-002-006>008-014>016-023>028-260000-
NORTHWEST WISCONSIN

CITY           SKY/WX    TMP DP  RH WIND       PRES   REMARKS
SUPERIOR ARPT  NOT AVBL
ASHLAND        SUNNY     55  44  66 N10       29.70S
HAYWARD        SUNNY     70  45  40 S8        29.66S
SIREN          CLOUDY    71  48  44 CALM      29.65F
CUMBERLAND     MOSUNNY   66  48  52 S7        29.66F
RICE LAKE      MOSUNNY   71  46  41 S8        29.68S
CHETEK         MOSUNNY   70  52  52 S6        29.66F
LADYSMITH      MOSUNNY   73  50  45 S7        29.68R
EAU CLAIRE     CLOUDY    71  49  45 S6        29.65S
MENOMONIE      CLOUDY    69  50  50 S8        29.66S
NEW RICHMOND   MOSUNNY   67  48  51 S12       29.66S
OSCEOLA        MOSUNNY   69  49  50 S13       29.67S
$$

WIZ003>005-009-010-017-018-260000-
NORTH CENTRAL WISCONSIN

CITY           SKY/WX    TMP DP  RH WIND       PRES   REMARKS
MANITOWISH WTR MOSUNNY   70  44  38 E5        29.67S
ARBOR VITAE    SUNNY     72  46  39 SE6       29.67S
WOODRUFF       SUNNY     72  46  39 SE6       29.67S
RHINELANDER    MOSUNNY   72  46  39 E7        29.68S
EAGLE RIVER    MOSUNNY   71  42  35 E6        29.68S
LAND O LAKES   MOSUNNY   71  43  36 E7        29.70S
PHILLIPS       CLOUDY    70  48  46 CALM      29.67R
TOMAHAWK       PTSUNNY   72  46  40 CALM      29.67S
MEDFORD        MOSUNNY   69  49  48 S5        29.67S
MERRILL        CLOUDY    72  49  43 CALM      29.67S
$$

WIZ029-030-035-036-043>047-260000-
CENTRAL WISCONSIN

CITY           SKY/WX    TMP DP  RH WIND       PRES   REMARKS
WAUSAU         CLOUDY    69  49  48 SE7       29.65R
MOSINEE        MOSUNNY   70  50  49 SE3       29.68R
MARSHFIELD     SUNNY     71  49  45 SE8       29.66R
STEVENS POINT  MOSUNNY   69  49  48 E5        29.67S
WAUPACA        PTSUNNY   74  50  42 E8        29.67S
WAUTOMA        MOSUNNY   71  51  49 E5        29.67S
WISC RAPIDS    SUNNY     73  48  41 S5        29.68R
CAMP DOUGLAS   NOT AVBL
$$

WIZ011>013-019>022-031-037>040-048>050-260000-
NORTHEAST WISCONSIN

CITY           SKY/WX    TMP DP  RH WIND       PRES   REMARKS
ANTIGO         SUNNY     68  51  53 E6        29.69R
SHAWANO        CLOUDY    72  54  52 SE9       29.67S
OCONTO         PTSUNNY   66  49  54 E6        29.66S
STURGEON BAY   SUNNY     65  51  60 NE10      29.68R
GREEN BAY      SUNNY     69  53  56 NE12      29.67S
MANITOWOC      NOT AVBL
APPLETON       MOSUNNY   68  43  40 NE13G20   29.66R
CLINTONVILLE   PTSUNNY   68  50  52 SE8       29.66S
OSHKOSH        SUNNY     68  50  52 N13       29.67S
$$

WIZ032>034-041-042-053>061-260000-
SOUTHWEST WISCONSIN

CITY           SKY/WX    TMP DP  RH WIND       PRES   REMARKS
LA CROSSE      SUNNY     73  54  51 SW10      29.65S
SPARTA         SUNNY     72  52  48 SW3       29.67R
VIROQUA        SUNNY     71  49  47 MISG      29.68S
BOSCOBEL       MOSUNNY   73  52  47 S5        29.68R
PRAIRIE DU CHI MOSUNNY   71  49  46 SW8       29.67R
PLATTEVILLE    SUNNY     70  55  59 SE3       29.69S
$$

WIZ056-057-062-063-064-067-068-260000-
SOUTH CENTRAL WISCONSIN

CITY           SKY/WX    TMP DP  RH WIND       PRES   REMARKS
REEDSBURG      PTSUNNY   69  51  52 SE3       29.67R
BARABOO/DELLS  SUNNY     71  51  49 E7        29.67S
LONE ROCK      NOT AVBL
MINERAL POINT  PTSUNNY   72  54  53 SW3       29.68S
MADISON        MOSUNNY   71  53  52 NE8       29.66S
MIDDLETON      MOSUNNY   71  53  53 SE7       29.68R
WATERTOWN      PTSUNNY   67  55  65 N5        29.67R
MONROE         MOSUNNY   68  52  56 E3        29.68S
JANESVILLE     MOSUNNY   72  50  46 VRB6      29.66F
$$

WIZ051-052-058>065-066-070>072-260000-
SOUTHEAST WISCONSIN

CITY           SKY/WX    TMP DP  RH WIND       PRES   REMARKS
MILWAUKEE      MOSUNNY   61  52  72 N10       29.67S
WAUKESHA       PTSUNNY   64  52  63 E7        29.68R
MILWAUKEE/TIMM MOSUNNY   63  48  59 NE9       29.68R
RACINE         SUNNY     61  50  67 N12       29.69R
KENOSHA        SUNNY     65  51  60 NE10      29.67S
FOND DU LAC    SUNNY     69  50  50 N10       29.67S
SHEBOYGAN      SUNNY     62  54  74 NE16      29.68R
WEST BEND      CLOUDY    64  52  63 NE9       29.67R
JUNEAU         PTSUNNY   69  52  55 NW8       29.68S
$$

LSZ147-162-260000-
LAKE SUPERIOR

STATION/POSITION TIME  TEMP    WIND        PRES    WAVE
                       AIR SEA DIR/SP/G            HT/PER
                 (UTC) (F)     (DEG/KT/KT) (MB)    (FT/S)
$$

LMZ867-665-643>646-260000-
LAKE MICHIGAN

STATION/POSITION TIME  TEMP    WIND        PRES    WAVE
                       AIR SEA DIR/SP/G            HT/PER
                 (UTC) (F)     (DEG/KT/KT) (MB)    (FT/S)
$$

TC  - TEMPERATURE IN CELSIUS
VSB - VISIBILITY IN STATUTE MILES
WCI - WIND CHILL INDEX
HX  - HEAT INDEX




USA.gov is the U.S. government's official web portal to all federal, state and local government web resources and services.